User: anonymous   Login
Location: ????????
(38.4362°N, 22.8767°E)
Time: 12:16:27
(UTC+00:00)
Language:

CZ-4 R/B - Orbit

View from above orbital plane
View from above orbital plane
View from above satellite
View from above satellite

Ground track
Ground track

The orbit data is extracted from the following two-line orbital elements,

1 28059U 03049C   24173.86621359  .00000605  00000-0  15377-3 0  9994
2 28059  98.6108 136.3677 0048790 343.3385  16.6205 14.53806634 95620
Epoch (UTC): 21 June 2024 20:47:20
Eccentricity: 0.0048790
inclination: 98.6108°
perigee height: 678 km
apogee height: 748 km
right ascension of ascending node: 136.3677°
argument of perigee: 343.3385°
revolutions per day: 14.53806634
mean anomaly at epoch: 16.6205°
orbit number at epoch: 9562

The dashed part of the orbit path shows where the satellite is in the earth's shadow,  

DLR